Wind_Speed
24 24 24 23 23 23 22 22 22 22 22 22 22 22 22 22 23 23 23 24 24 24 24 23 23 23 23 23 23 25 26 27 27 28 28 29 30 31 32 33 36 37 37 36
24 24 24 24 24 24 24 24 23 23 23 24 23 23 23 23 24 24 23 23 23 23 23 23 22 22 23 23 23 23 24 25 26 27 28 28 28 29 30 32 34 36 36 35
25 25 25 25 25 25 25 25 25 25 25 25 25 23 23 23 24 23 23 23 23 23 22 22 21 21 21 21 21 22 23 24 25 25 26 27 28 28 30 31 32 34 35 35
26 26 26 26 26 27 27 27 27 27 27 26 25 25 22 23 23 24 24 23 23 23 23 22 21 21 21 21 21 22 22 23 24 25 25 25 26 27 29 30 31 33 33 34
27 27 27 27 27 28 28 28 29 29 29 28 26 27 24 23 23 23 24 23 23 23 22 21 21 21 21 21 22 22 22 22 22 23 24 24 24 25 26 28 30 31 33 34
28 28 28 28 28 28 29 29 30 30 29 29 27 27 26 24 23 23 23 23 23 22 22 21 21 20 21 21 22 22 22 22 22 22 23 23 23 24 25 26 28 29 30 33
30 29 29 29 29 29 29 29 30 31 30 29 28 28 27 26 24 24 23 23 23 22 22 21 21 21 21 21 22 23 22 22 22 22 22 23 23 24 24 25 27 28 29 31
31 30 30 30 30 30 30 30 30 31 31 30 29 28 27 26 25 24 24 23 23 23 22 21 21 22 22 21 22 22 21 22 22 22 22 22 22 23 23 24 26 27 28 30
32 32 31 31 31 31 31 30 31 32 32 31 30 29 27 25 25 24 24 24 23 23 22 22 22 22 22 22 22 22 22 22 23 22 22 22 22 23 24 25 26 27 27 28
33 33 32 32 32 32 32 32 32 32 33 32 31 29 28 26 25 25 24 24 23 23 22 22 23 23 23 23 23 22 22 23 23 23 22 22 23 23 23 25 25 26 27 28
35 36 34 33 33 32 32 32 33 34 34 33 33 30 28 27 26 26 26 25 24 23 23 22 22 23 23 23 23 22 22 23 23 23 23 23 23 23 23 25 26 27 27 28
36 37 36 34 34 34 33 33 33 34 34 35 35 33 29 29 28 27 27 26 25 25 24 23 23 23 24 23 23 23 23 23 23 23 23 24 24 23 23 25 26 27 28 28
37 38 37 36 35 34 34 33 34 35 36 36 35 34 31 30 30 29 29 28 27 26 25 24 24 25 24 24 24 24 23 23 23 24 24 24 24 24 24 25 26 27 27 28
38 38 38 37 36 36 35 35 35 35 36 36 35 34 32 32 32 31 30 30 29 28 26 26 26 26 25 25 24 24 24 24 24 24 24 23 24 25 25 25 26 27 27 28
39 40 39 39 38 38 38 37 37 37 37 37 35 34 33 33 33 32 32 31 30 30 29 28 28 27 27 26 26 26 26 25 24 24 24 23 23 24 25 26 26 27 28 28
39 40 40 40 40 40 40 38 38 37 37 37 36 35 33 33 34 33 33 32 32 31 30 30 29 29 28 28 27 26 26 26 24 24 24 24 24 24 24 25 26 27 27 28
38 39 40 40 39 41 41 37 37 37 37 38 38 36 35 34 34 34 33 33 33 32 32 31 30 30 29 28 27 26 26 26 25 25 25 25 25 26 25 25 25 26 26 27
38 38 39 39 39 41 38 37 38 38 38 38 38 37 37 36 35 35 34 34 33 33 33 32 31 30 29 28 28 27 27 27 26 26 26 26 27 28 28 27 27 26 26 28
37 38 38 39 40 40 38 37 37 38 38 37 37 37 37 37 37 36 35 34 34 33 33 32 31 31 30 29 29 29 28 29 28 28 28 29 29 30 30 29 29 29 29 29
36 37 38 39 39 39 37 36 37 37 37 37 38 37 37 37 37 35 35 35 35 34 33 32 32 31 31 30 30 29 30 30 30 30 30 31 31 30 31 30 30 30 31 31
36 37 38 39 40 39 37 36 35 36 36 36 37 37 37 37 37 35 36 36 35 34 33 33 32 32 31 31 31 31 31 32 32 32 33 33 33 32 32 32 31 32 33 33
36 37 37 37 39 39 37 36 36 36 35 35 36 36 37 37 37 36 35 35 34 34 34 33 33 33 33 33 33 33 33 33 33 33 33 33 33 33 33 33 33 34 34 34
35 36 37 38 38 37 37 37 37 37 37 36 36 35 36 36 36 36 35 35 34 34 34 33 33 34 34 34 34 34 33 33 33 33 33 33 33 33 33 34 34 35 35 36
35 35 37 38 37 37 36 36 37 38 38 37 36 35 35 35 35 35 35 34 34 35 35 34 34 35 35 35 35 35 35 35 34 34 34 33 34 34 34 34 35 35 36 36
33 34 35 36 35 36 35 36 36 38 38 37 36 35 35 34 34 34 34 34 34 34 35 35 35 36 36 36 36 36 36 36 35 34 34 34 34 34 34 35 35 36 37 38
32 34 35 34 33 35 34 34 35 36 37 37 36 35 34 34 33 34 34 35 35 34 34 35 35 36 36 37 37 37 37 36 36 35 34 34 34 34 35 35 36 37 38 38
Wind_Direction
266 265 265 266 267 268 267 268 270 272 275 278 280 282 284 285 286 287 288 289 289 290 289 287 283 280 279 283 284 283 281 279 277 274 270 267 262 257 256 256 252 250 249 248
264 264 264 265 266 266 266 268 270 273 276 278 280 281 282 284 287 288 289 290 291 291 289 286 283 281 280 283 284 284 283 281 280 276 273 270 264 258 257 257 253 250 250 251
264 264 264 264 265 266 266 268 270 274 276 279 280 280 281 283 286 287 288 291 292 292 290 287 282 279 281 283 286 285 284 281 281 279 276 272 266 263 262 257 255 253 254 253
264 263 264 264 264 265 266 267 270 273 276 278 280 282 280 282 285 287 288 290 292 291 288 286 283 281 283 284 286 288 287 284 282 280 278 274 270 267 265 260 257 256 255 253
265 263 262 263 264 265 266 267 270 273 276 276 278 282 283 283 285 286 288 289 290 289 287 286 283 282 285 285 285 289 289 286 284 281 279 276 273 271 267 263 259 257 256 254
265 264 263 263 263 264 267 269 270 272 275 276 278 281 283 285 285 286 287 288 289 289 287 285 283 282 285 286 286 289 290 289 286 282 278 276 273 271 270 265 260 257 255 254
265 265 265 264 264 265 267 269 272 273 275 276 278 280 282 285 285 285 286 287 288 288 286 284 281 282 286 286 286 288 290 289 288 283 280 277 274 270 270 265 261 258 255 253
265 266 265 265 265 266 267 268 270 274 277 278 278 279 282 284 285 285 285 286 286 287 285 282 280 283 286 287 287 287 289 289 288 285 281 279 276 272 269 264 263 260 256 254
266 266 265 265 265 265 266 267 269 272 275 277 278 280 280 282 283 284 284 285 285 284 282 279 280 284 286 286 287 287 289 288 288 286 282 280 278 274 270 266 263 262 259 256
265 266 265 266 265 266 267 267 268 270 273 276 277 278 279 279 281 282 283 284 284 283 280 279 281 282 284 285 285 286 287 288 287 286 283 281 278 273 271 268 264 262 261 259
266 265 265 265 266 267 267 268 268 270 271 273 275 276 276 278 279 278 279 281 281 281 282 281 282 283 285 285 286 287 288 288 286 285 284 282 280 276 273 271 267 263 262 262
265 265 264 264 265 265 265 266 266 268 270 271 273 274 275 275 275 275 275 277 280 281 282 281 281 283 285 285 284 285 289 288 286 286 286 283 281 278 275 273 270 266 265 264
265 265 265 264 263 263 264 265 265 267 268 269 271 273 273 272 272 272 273 276 279 280 281 280 281 282 283 284 283 284 286 286 286 286 286 285 281 278 276 273 271 269 267 265
263 263 263 264 264 264 264 264 265 267 268 269 270 271 270 270 270 272 273 274 276 278 278 279 280 282 283 283 284 284 284 285 285 286 286 285 283 280 278 275 272 270 268 268
263 262 262 261 262 263 263 263 264 264 266 268 270 270 269 268 269 270 270 272 274 276 277 278 279 279 280 281 281 281 282 284 286 286 285 284 284 281 278 277 274 272 271 269
263 263 262 261 261 261 262 263 263 264 264 266 268 269 268 268 267 268 268 269 271 273 275 278 279 279 278 279 281 280 281 281 283 284 284 283 282 282 282 279 276 274 273 271
263 264 263 262 261 261 261 262 263 264 264 265 266 267 268 267 267 266 266 266 268 270 272 275 277 279 279 278 279 279 279 280 281 281 282 282 282 283 284 283 280 276 274 274
264 263 263 262 261 262 264 263 263 264 264 265 266 266 265 265 265 266 265 265 266 268 270 273 275 275 276 275 276 276 277 277 278 279 280 280 281 282 282 282 280 277 277 278
264 263 264 264 264 264 263 264 265 265 264 264 265 265 265 265 264 265 264 263 265 267 269 271 272 272 273 274 274 274 275 276 277 278 279 280 280 280 278 280 279 277 278 279
262 262 263 264 265 266 265 264 265 265 263 262 263 265 264 265 263 262 263 263 264 266 268 269 270 271 272 272 272 273 275 276 277 277 277 279 277 277 277 278 278 279 279 280
262 262 262 263 264 265 265 265 265 265 264 263 264 265 263 263 262 261 262 263 264 265 266 267 268 269 269 270 271 272 273 274 275 276 276 277 276 276 277 278 279 279 280 281
263 263 263 263 263 264 265 265 263 263 262 263 263 265 264 263 262 261 262 262 262 263 263 265 266 266 267 269 271 272 273 274 275 276 277 276 276 277 278 278 278 279 280 282
263 264 264 264 264 265 264 263 261 260 261 262 263 264 264 263 262 262 262 261 261 261 262 263 264 266 267 269 271 272 273 274 275 276 277 276 276 277 277 277 277 278 280 281
264 264 265 264 264 264 263 262 262 260 261 262 262 262 263 262 262 261 262 261 261 261 262 264 264 265 267 269 271 271 273 274 274 275 275 275 275 276 276 277 278 278 280 282
266 266 265 265 264 262 261 262 263 261 260 261 261 261 262 263 261 261 260 259 260 262 263 264 264 265 267 269 271 272 273 274 274 273 273 274 274 275 275 276 277 278 280 282
264 265 266 266 264 263 261 260 262 262 260 261 260 260 260 260 260 259 260 260 261 262 264 265 265 266 267 269 270 271 273 273 273 272 273 274 275 275 276 277 278 279 281 283
Height
5753 5754 5754 5754 5753 5753 5753 5752 5752 5751 5750 5749 5748 5747 5745 5743 5741 5739 5737 5735 5733 5730 5728 5725 5723 5722 5721 5719 5718 5717 5715 5714 5712 5711 5710 5709 5709 5710 5711 5713 5714 5716 5718 5720
5747 5747 5747 5747 5746 5746 5746 5746 5745 5745 5743 5742 5741 5740 5739 5737 5735 5733 5731 5729 5726 5724 5721 5719 5717 5716 5715 5713 5712 5711 5709 5707 5706 5704 5703 5702 5701 5702 5703 5704 5706 5708 5710 5713
5739 5741 5740 5740 5739 5739 5739 5739 5739 5738 5737 5735 5734 5734 5733 5731 5729 5727 5725 5722 5720 5718 5715 5713 5711 5710 5709 5708 5706 5705 5703 5701 5700 5698 5696 5695 5694 5694 5695 5696 5698 5700 5702 5704
5732 5732 5732 5732 5732 5732 5732 5732 5731 5730 5729 5728 5728 5726 5726 5724 5722 5721 5719 5716 5714 5711 5709 5707 5706 5704 5703 5702 5700 5699 5697 5695 5693 5691 5690 5688 5687 5687 5687 5688 5690 5692 5694 5696
5724 5724 5724 5725 5725 5724 5724 5724 5724 5723 5722 5721 5720 5718 5719 5718 5716 5714 5712 5710 5707 5705 5703 5701 5700 5699 5698 5696 5694 5693 5691 5689 5687 5685 5683 5682 5681 5680 5680 5680 5682 5683 5685 5687
5716 5716 5716 5717 5717 5717 5717 5717 5716 5715 5714 5713 5713 5712 5711 5710 5709 5708 5706 5704 5701 5699 5697 5695 5694 5693 5692 5690 5688 5686 5685 5683 5681 5679 5677 5676 5675 5674 5673 5673 5674 5675 5677 5679
5709 5709 5708 5709 5709 5709 5709 5709 5708 5707 5706 5706 5706 5704 5704 5703 5702 5701 5699 5697 5695 5693 5691 5690 5688 5687 5686 5684 5682 5680 5679 5677 5675 5673 5671 5670 5669 5668 5667 5667 5667 5668 5669 5671
5699 5701 5701 5700 5701 5701 5701 5701 5701 5699 5698 5698 5697 5696 5698 5696 5695 5693 5692 5690 5688 5686 5685 5684 5683 5682 5680 5678 5676 5674 5672 5671 5669 5667 5665 5664 5662 5661 5661 5661 5661 5661 5662 5663
5690 5692 5692 5692 5692 5693 5692 5692 5692 5691 5689 5689 5689 5689 5690 5689 5687 5686 5684 5683 5682 5680 5679 5678 5677 5676 5674 5672 5670 5669 5666 5664 5662 5661 5659 5658 5656 5655 5655 5655 5655 5655 5655 5656
5680 5681 5683 5683 5684 5684 5684 5684 5683 5682 5681 5680 5681 5681 5682 5681 5680 5679 5677 5676 5675 5674 5673 5672 5671 5669 5668 5666 5664 5663 5660 5658 5656 5654 5653 5652 5650 5649 5649 5648 5648 5648 5648 5649
5670 5671 5673 5674 5674 5675 5675 5675 5673 5673 5672 5672 5672 5676 5674 5673 5672 5671 5670 5669 5669 5668 5667 5666 5664 5663 5661 5660 5658 5656 5654 5652 5650 5648 5647 5646 5644 5643 5643 5642 5642 5641 5642 5642
5660 5660 5662 5664 5664 5664 5664 5665 5665 5665 5664 5663 5663 5668 5666 5665 5664 5663 5663 5662 5661 5661 5660 5659 5657 5656 5655 5653 5652 5650 5648 5646 5644 5642 5641 5639 5638 5637 5636 5635 5635 5635 5635 5635
5649 5650 5651 5653 5655 5655 5654 5655 5655 5654 5654 5653 5654 5658 5658 5657 5656 5655 5655 5654 5654 5653 5653 5652 5650 5650 5648 5647 5645 5644 5642 5640 5638 5636 5634 5633 5631 5630 5629 5629 5628 5628 5628 5628
5638 5639 5641 5642 5642 5642 5644 5645 5644 5644 5643 5643 5645 5647 5649 5647 5647 5647 5646 5646 5646 5645 5645 5644 5643 5642 5641 5640 5638 5637 5635 5634 5632 5630 5628 5626 5625 5624 5623 5622 5621 5621 5621 5620
5626 5628 5629 5630 5631 5631 5632 5633 5634 5633 5633 5634 5636 5636 5638 5637 5637 5637 5637 5637 5637 5637 5637 5637 5636 5635 5633 5632 5631 5629 5628 5626 5625 5623 5622 5620 5619 5617 5616 5615 5614 5613 5613 5612
5614 5615 5617 5618 5619 5619 5620 5622 5622 5623 5623 5623 5624 5626 5628 5627 5627 5627 5628 5628 5628 5628 5628 5628 5627 5627 5625 5624 5623 5622 5620 5619 5618 5616 5615 5613 5612 5611 5609 5608 5607 5606 5605 5605
5604 5604 5604 5606 5607 5606 5608 5612 5612 5612 5613 5613 5613 5616 5616 5616 5616 5617 5617 5618 5619 5619 5619 5619 5619 5618 5617 5616 5615 5614 5612 5611 5610 5609 5608 5606 5605 5604 5602 5601 5599 5598 5598 5597
5593 5592 5592 5593 5595 5595 5600 5601 5601 5601 5602 5602 5602 5604 5605 5605 5606 5606 5607 5608 5609 5609 5609 5610 5609 5609 5608 5607 5606 5605 5604 5604 5602 5601 5600 5599 5598 5596 5595 5593 5592 5591 5591 5590
5581 5581 5581 5581 5582 5583 5588 5590 5589 5589 5590 5591 5591 5592 5593 5594 5595 5596 5597 5598 5599 5599 5599 5600 5600 5600 5599 5599 5598 5597 5596 5595 5594 5593 5592 5591 5589 5588 5587 5586 5585 5584 5583 5582
5570 5570 5571 5570 5570 5572 5577 5578 5577 5578 5579 5581 5580 5581 5582 5582 5584 5586 5586 5587 5588 5589 5589 5590 5590 5590 5590 5589 5589 5588 5588 5587 5586 5585 5583 5582 5581 5579 5578 5577 5576 5575 5574 5572
5560 5559 5560 5559 5558 5560 5565 5566 5567 5568 5569 5568 5568 5569 5570 5570 5572 5575 5575 5576 5577 5578 5579 5579 5580 5580 5580 5580 5580 5579 5578 5578 5577 5576 5574 5573 5572 5570 5569 5568 5567 5566 5565 5564
5548 5548 5549 5549 5548 5552 5554 5554 5555 5556 5556 5556 5556 5557 5558 5559 5561 5562 5564 5565 5566 5567 5568 5569 5570 5570 5570 5570 5570 5569 5568 5568 5567 5566 5564 5563 5562 5560 5559 5558 5557 5556 5555 5554
5537 5539 5538 5539 5540 5542 5541 5541 5543 5543 5544 5545 5545 5547 5547 5548 5550 5551 5552 5554 5555 5556 5557 5558 5559 5559 5560 5559 5559 5559 5558 5557 5556 5555 5554 5552 5551 5550 5549 5548 5547 5546 5545 5544
5527 5527 5526 5526 5528 5530 5529 5530 5530 5531 5532 5533 5534 5535 5536 5537 5538 5540 5541 5543 5544 5545 5547 5547 5548 5549 5549 5549 5548 5548 5547 5546 5545 5544 5543 5542 5541 5540 5538 5537 5536 5535 5534 5533
5516 5515 5514 5515 5517 5517 5518 5518 5519 5520 5520 5521 5523 5524 5525 5526 5528 5529 5530 5532 5533 5534 5535 5536 5537 5537 5538 5538 5537 5536 5536 5535 5534 5533 5532 5531 5530 5529 5528 5527 5526 5525 5524 5522
5506 5505 5504 5505 5506 5506 5507 5508 5508 5508 5509 5510 5511 5513 5514 5515 5517 5518 5519 5521 5522 5523 5524 5525 5525 5526 5526 5526 5526 5525 5524 5523 5523 5522 5522 5521 5520 5519 5518 5517 5515 5514 5512 5511